Regional Weather Roundup
Issued by NWS Little Rock, AR

Home | Current Version | Previous Version | Graphics & Text | Print | Product List | Glossary On
Versions: 1 2 3 4 5 6 7 8 9 10 11 12 13 14 15 16 17 18 19 20 21 22 23 24 25 26 27 28 29 30 31 32 33 34 35 36 37 38 39 40 41 42 43 44 45 46 47 48 49 50
000
ASUS44 KLZK 121805
RWRLZK

WEATHER ROUNDUP FOR ARKANSAS
NATIONAL WEATHER SERVICE LITTLE ROCK AR
1200 PM CST FRI FEB 12 2016

NOTE: "FAIR" INDICATES FEW OR NO CLOUDS BELOW 12,000 FEET WITH NO
SIGNIFICANT WEATHER AND/OR OBSTRUCTIONS TO VISIBILITY.

ARZ001-003-010-029-121900-
NORTHWEST ARKANSAS

CITY           SKY/WX    TMP DP  RH WIND       PRES   REMARKS
FAYETTEVILLE   SUNNY     50  31  48 N9        30.33R
6HR MIN TEMP:  24; 6HR MAX TEMP:  50;

FORT SMITH     SUNNY     58  28  32 W8        30.31F
6HR MIN TEMP:  30; 6HR MAX TEMP:  58;

HARRISON       SUNNY     47  26  44 NW12      30.30R
6HR MIN TEMP:  34; 6HR MAX TEMP:  47;

BENTONVILLE    SUNNY     46  25  42 N12       30.35R
6HR MIN TEMP:  28; 6HR MAX TEMP:  46;

ROGERS         SUNNY     45  27  49 N13G18    30.34R
6HR MIN TEMP:  32; 6HR MAX TEMP:  45;

SILOAM SPGS    SUNNY     48  27  43 N14       30.34S
6HR MIN TEMP:  30; 6HR MAX TEMP:  48;

HIGHFILL       SUNNY     49  29  46 N15       30.33R
6HR MIN TEMP:  28; 6HR MAX TEMP:  49;

SPRINGDALE     SUNNY     48  28  46 NW17      30.34R
$$

ARZ004-005-016-121900-
NORTH CENTRAL ARKANSAS

CITY           SKY/WX    TMP DP  RH WIND       PRES   REMARKS
BATESVILLE     SUNNY     52  27  37 NW9       30.29S
6HR MIN TEMP:  27; 6HR MAX TEMP:  52;

FLIPPIN        SUNNY     48  25  40 NE6       30.28F
6HR MIN TEMP:  27; 6HR MAX TEMP:  48;

MTN HOME       SUNNY     48  26  42 N10G16    30.28S
6HR MIN TEMP:  28; 6HR MAX TEMP:  49;

$$

ARZ040-041-121900-
WEST CENTRAL ARKANSAS

CITY           SKY/WX    TMP DP  RH WIND       PRES   REMARKS
MENA           SUNNY     63  34  34 N7        30.28F
MOUNT IDA      SUNNY     62  31  31 VRB5      30.25F
6HR MIN TEMP:  28; 6HR MAX TEMP:  62;

$$

ARZ009-017-025-026-028-121900-
NORTHEAST ARKANSAS

CITY           SKY/WX    TMP DP  RH WIND       PRES   REMARKS
CORNING        FAIR      46  27  46 N15G25    30.29S
JONESBORO      SUNNY     46  27  47 N12       30.28R
6HR MIN TEMP:  28; 6HR MAX TEMP:  46;

NEWPORT        SUNNY     49  27  42 N14       30.30R
6HR MIN TEMP:  27; 6HR MAX TEMP:  50;

WALNUT RIDGE   SUNNY     48  27  43 NE14      30.29S
6HR MIN TEMP:  27; 6HR MAX TEMP:  48;

BLYTHEVILLE    SUNNY     53  29  39 N17       30.28S
6HR MIN TEMP:  29; 6HR MAX TEMP:  53;

NW BLYTHEVILLE SUNNY     45  28  53 N9G18     30.28S
$$

ARZ022-023-033-042-044-121900-
CENTRAL ARKANSAS

CITY           SKY/WX    TMP DP  RH WIND       PRES   REMARKS
LITTLE ROCK    MOSUNNY   58  29  33 N9        30.28F
6HR MIN TEMP:  32; 6HR MAX TEMP:  59;

N LITTLE ROCK  MOSUNNY   55  32  41 N9G16     30.28F
6HR MIN TEMP:  33; 6HR MAX TEMP:  55;

SEARCY         SUNNY     55  30  38 MISG      30.29F
6HR MIN TEMP:  27; 6HR MAX TEMP:  56;

HOT SPRINGS    SUNNY     61  31  32 NW9       30.27F
6HR MIN TEMP:  31; 6HR MAX TEMP:  61;

RUSSELLVILLE   SUNNY     55  29  36 W6        30.28F
6HR MIN TEMP:  27; 6HR MAX TEMP:  55;

CLINTON        FAIR      55  28  35 NW3       30.28S
$$

ARZ036-121900-
EAST ARKANSAS

CITY           SKY/WX    TMP DP  RH WIND       PRES   REMARKS
WEST MEMPHIS   SUNNY     49  30  48 N12       30.27S
6HR MIN TEMP:  29; 6HR MAX TEMP:  49;

$$

ARZ050-053-066-070-073-121900-
SOUTHWEST ARKANSAS

CITY           SKY/WX    TMP DP  RH WIND       PRES   REMARKS
ARKADELPHIA    FAIR      62  34  35 NW7       30.28F
6HR MIN TEMP:  29; 6HR MAX TEMP:  63;

CAMDEN         SUNNY     61  28  29 CALM      30.29S
TEXARKANA      SUNNY     60  32  34 NE5       30.29S
6HR MIN TEMP:  32; 6HR MAX TEMP:  60;

EL DORADO      SUNNY     60  32  34 N8        30.29S
6HR MIN TEMP:  32; 6HR MAX TEMP:  60;

DE QUEEN       SUNNY     66  35  31 N6        30.27S
6HR MIN TEMP:  29; 6HR MAX TEMP:  66;

$$

ARZ056-057-069-121900-
SOUTHEAST ARKANSAS

CITY           SKY/WX    TMP DP  RH WIND       PRES   REMARKS
PINE BLUFF     SUNNY     55  30  38 NW9G18    30.29S
6HR MIN TEMP:  31; 6HR MAX TEMP:  55;

STUTTGART      SUNNY     54  32  43 N10       30.29S
6HR MIN TEMP:  30; 6HR MAX TEMP:  54;

MONTICELLO     SUNNY     61  29  29 NE10G16   30.27S
6HR MIN TEMP:  32; 6HR MAX TEMP:  61;


$$





USA.gov is the U.S. government's official web portal to all federal, state and local government web resources and services.